Weather History for KGSH - December, 2012

Change the Weather History Date:

Monday, December 3, 2012

  Actual Average (WUND) Record (WUND)
Temperature  
Mean Temperature 54 °F -  
Max Temperature 64 °F - - (-1)
Min Temperature 44 °F - - (-1)
Degree Days  
Heating Degree Days 11    
Growing Degree Days 4 (Base 50)    
Moisture  
Dew Point 55 °F    
Average Humidity 89    
Maximum Humidity 100    
Minimum Humidity 73    
Precipitation  
Precipitation 0.01 in - - ()
Sea Level Pressure  
Sea Level Pressure 30.00 in    
Wind  
Wind Speed 8 mph (SSE)    
Max Wind Speed 23 mph    
Max Gust Speed 30 mph    
Visibility 3 miles    
Events Fog    
Averages and records for this station are not official NWS values.
T = Trace of Precipitation, MM = Missing Value Source: NWS Daily Summary

Daily Weather History Graph

Daily Weather History Graph

Search for Another Location

Airport or City:

Trip Planner

Search our weather history database for the weather conditions in past years. The results will help you decide how hot, cold, wet, or windy it might be!

Date:

Astronomy

Dec. 03, 2012 Rise Set
Actual Time 7:52 AM EST 5:13 PM EST
Civil Twilight 7:21 AM EST 5:44 PM EST
Nautical Twilight 6:47 AM EST 6:19 PM EST
Astronomical Twilight 6:13 AM EST 6:52 PM EST
Moon 10:01 PM EST (12/3) 11:13 AM EST (12/3)
Length of Visible Light 10h 22m
Length of Day
9h 20m
Waning Gibbous, 78% of the Moon is Illuminated
Dec 3
Waning Gibbous
Dec 6
Last Quarter
Dec 13
New
Dec 20
First Quarter
Dec 28
Full

Hourly Weather History & Observations

Time (EST) Temp. Windchill Dew Point Humidity Pressure Visibility Wind Dir Wind Speed Gust Speed Precip Events Conditions
12:08 AM 46.4 °F 45.2 °F 44.6 °F 93% 30.08 in 0.2 mi ESE 3.5 mph - N/A Fog Fog
12:23 AM 46.4 °F - 44.6 °F 93% 30.08 in 0.2 mi Calm Calm - N/A Fog Fog
12:42 AM 44.6 °F - 44.6 °F 100% 30.08 in 0.2 mi Calm Calm - N/A Fog Fog
12:53 AM 45.0 °F 43.5 °F 44.1 °F 97% 30.08 in 0.2 mi SSE 3.5 mph - N/A Fog Fog
1:53 AM 53.1 °F - 51.1 °F 93% 30.07 in 0.2 mi South 5.8 mph - N/A Fog Fog
2:53 AM 54.0 °F - 53.1 °F 97% 30.08 in 0.2 mi SSW 4.6 mph - N/A Fog Fog
3:53 AM 55.0 °F - 54.0 °F 96% 30.09 in 0.2 mi SSW 4.6 mph - N/A Fog Fog
4:53 AM 55.0 °F - 54.0 °F 96% 30.07 in 0.2 mi SSE 6.9 mph - 0.01 in Fog Fog
5:17 AM 55.4 °F - 53.6 °F 94% 30.07 in 0.8 mi SSE 6.9 mph - N/A   Overcast
5:43 AM 55.4 °F - 53.6 °F 94% 30.06 in 1.2 mi South 5.8 mph - N/A   Overcast
5:53 AM 55.0 °F - 54.0 °F 96% 30.07 in 1.0 mi South 5.8 mph - N/A   Overcast
6:09 AM 55.4 °F - 53.6 °F 94% 30.06 in 2.0 mi South 8.1 mph - N/A   Overcast
6:53 AM 55.0 °F - 54.0 °F 96% 30.06 in 1.8 mi SE 8.1 mph - N/A   Overcast
7:00 AM 55.4 °F - 53.6 °F 94% 30.06 in 1.2 mi SE 6.9 mph - N/A   Overcast
7:18 AM 55.4 °F - 53.6 °F 94% 30.06 in 0.8 mi SE 8.1 mph - N/A   Overcast
7:42 AM 55.4 °F - 53.6 °F 94% 30.05 in 0.5 mi SE 8.1 mph - N/A Fog Fog
7:53 AM 55.0 °F - 54.0 °F 96% 30.06 in 0.8 mi SE 9.2 mph - N/A   Mist
8:14 AM 55.4 °F - 53.6 °F 94% 30.05 in 0.5 mi SE 11.5 mph - N/A Fog Fog
8:50 AM 55.4 °F - 55.4 °F 100% 30.05 in 0.8 mi SSE 12.7 mph - N/A   Overcast
8:53 AM 55.9 °F - 55.0 °F 97% 30.05 in 0.8 mi SSE 9.2 mph - N/A   Overcast
9:00 AM 55.4 °F - 55.4 °F 100% 30.04 in 1.0 mi SE 11.5 mph - N/A   Overcast
9:48 AM 57.2 °F - 55.4 °F 94% 30.04 in 1.0 mi SE 12.7 mph - N/A   Overcast
10:03 AM 57.2 °F - 55.4 °F 94% 30.03 in 1.0 mi SE 11.5 mph - N/A   Overcast
10:53 AM 59.0 °F - 57.0 °F 93% 30.04 in 1.2 mi SSE 10.4 mph - N/A   Overcast
11:36 AM 60.8 °F - 57.2 °F 88% 30.01 in 2.0 mi SSE 12.7 mph - N/A   Overcast
11:53 AM 61.0 °F - 57.9 °F 90% 30.01 in 2.5 mi SSE 12.7 mph - N/A   Overcast
12:05 PM 60.8 °F - 57.2 °F 88% 29.99 in 1.5 mi South 10.4 mph - N/A   Overcast
12:41 PM 60.8 °F - 59.0 °F 94% 29.98 in 1.2 mi South 11.5 mph - N/A   Overcast
12:53 PM 61.0 °F - 59.0 °F 93% 29.98 in 1.8 mi South 12.7 mph - N/A   Overcast
1:06 PM 62.6 °F - 59.0 °F 88% 29.96 in 2.0 mi South 10.4 mph 19.6 mph N/A   Overcast
1:42 PM 62.6 °F - 59.0 °F 88% 29.96 in 3.0 mi South 11.5 mph - N/A   Overcast
1:53 PM 63.0 °F - 59.0 °F 87% 29.95 in 3.0 mi South 11.5 mph - N/A   Overcast
2:14 PM 62.6 °F - 59.0 °F 88% 29.94 in 4.0 mi South 11.5 mph - N/A   Overcast
2:53 PM 64.0 °F - 59.0 °F 84% 29.94 in 4.0 mi South 12.7 mph - N/A   Haze
3:53 PM 64.0 °F - 59.0 °F 84% 29.93 in 5.0 mi South 13.8 mph - N/A   Haze
4:21 PM 64.4 °F - 59.0 °F 83% 29.92 in 6.0 mi South 15.0 mph 21.9 mph N/A   Haze
4:34 PM 64.4 °F - 59.0 °F 83% 29.92 in 6.0 mi South 15.0 mph 21.9 mph N/A   Haze
4:46 PM 62.6 °F - 57.2 °F 82% 29.91 in 6.0 mi South 13.8 mph - N/A   Haze
4:53 PM 63.0 °F - 57.9 °F 84% 29.91 in 6.0 mi South 12.7 mph - N/A   Haze
5:53 PM 63.0 °F - 57.9 °F 84% 29.90 in 10.0 mi South 12.7 mph - N/A   Clear
6:53 PM 64.9 °F - 57.0 °F 75% 29.90 in 10.0 mi South 18.4 mph 27.6 mph N/A   Clear
7:53 PM 64.9 °F - 55.9 °F 73% 29.91 in 10.0 mi South 18.4 mph 26.5 mph N/A   Scattered Clouds
8:53 PM 64.0 °F - 55.0 °F 73% 29.93 in 10.0 mi SSW 21.9 mph 29.9 mph N/A   Partly Cloudy
9:53 PM 64.0 °F - 55.0 °F 73% 29.92 in 10.0 mi SSW 20.7 mph 28.8 mph N/A   Partly Cloudy
10:53 PM 64.0 °F - 55.0 °F 73% 29.92 in 10.0 mi SSW 21.9 mph 29.9 mph N/A   Overcast
11:18 PM 62.6 °F - 55.4 °F 77% 29.92 in 10.0 mi SSW 23.0 mph 28.8 mph N/A   Overcast
11:53 PM 63.0 °F - 55.0 °F 75% 29.92 in 10.0 mi SSW 17.3 mph 28.8 mph N/A   Overcast